 HI HI A6 C7 81 D5 11 48 FF 0D 00 2E 8B 59 85 61 94 92 B0 81 C0 BA BE C2 BD 
 HI HI A6 C7 81 D5 16 48 FF 0D 00 2E 5A 82 8A 60  3 91 B0 76 C0 BA BE C2 BD 
 HI HI AN 07 81 D5 1B 48 FF 0D 00 2E          60 92 90 B0 87 C0 BA BE C1 BD 
 HI HI AD C7 81 D5 16 48 FF 0D 00 2E 81 5B 7F 60 92 90 B0 90 C0 B9 BD C1 BD 
 HI HI A6 C7 81 D5 06 48 FF 0D 00 2E AE 4E 81 60 92 90 B0 90 C0 B9 BD C1 BD 
 HI HI A6 C7 81 D5 0B 48 FF 0D 00 2E 8B 40 83 60 92 92 B0 82 C0 B9 BD CI BD  
 HI HI A6 C7 81 D5 11 48 FF 0D 00 2E A3 55 7F 60 92 90 A0 6B C0 B9 BD C1 BD
 HI HI A6 C7 81 D5 16 48 FF 0D 00 2E 64 52 88 60 92 90 B9 7E BF B9 BD C1 B0
 HI HI A6 C7 81 D5 1B 48 FF 0D 00 2E 63 30 70 60 93 90 B0 80 BF B9 BD C1 BD 
 HI HI A6 C7 81 D5 00 48 FF 1E 00 3E 3A 5F 7E 60 93 91 B0 7A BF B9 BD C1 BD 
 HI HI A6 C7 81 D5 05 48 0A 0D 00 2E 71 5E  2 60 93 91 B0 8  BF B9 BD C0 BD 
 HI HI A6 C7 81 D5 0B 48 FF 0D 00 2E  3 4A 7F 60 92 90 B0 97 BF B8 BD C0 BD 
 HI HI A6 C7 81 D5 10 48 FF 0D 00 2E 63 49 7F 60 93 91 B0 8B BF B8 BD C0 BD 
 HI HI A6 C7 81 D5 15 48 FF 0D 00 2E 44 31 74 4A 94 92 B0 74 BF B8 BD C0 BD 
 HI HI A6 C7 81 D5 1F 48 FF 0D 00 2E 53 32 7C 60 92 90 B0 67 BE B8 BC C0 BD 
 HI HI A6 C7 81 D5 04 48 FF 0D 00 2E 3E 52 7D 60 93 93 B0 A8 BE B8 BC BF BD 

  
 ------------------------ FO-29の軌道要素 ------------------------------        
 
  ■ 軌道要素1:「jamsat−keps:1004」より         
          SB KEPS @ AMSAT  $ORB00170.N
          2Line Orbital Elements 00170.AMSAT

 HR AMSAT ORBITAL ELEMENTS FOR AMATEUR SATELLITES IN NASA FORMAT
 FROM WA5QGD FORT WORTH,TX June 18, 2000
 SEND SUBSCRIBE/UNSUBSCRIBE TO majordomo@amsat.org ONLY
 BID: ORB00170.N

  DECODE 2-LINE ELSETS WITH THE FOLLOWING KEY:
  1 AAAAAU 00  0  0 BBBBB.BBBBBBBB  .CCCCCCCC  00000-0  00000-0 0  DDDZ
  2 AAAAA EEE.EEEE FFF.FFFF GGGGGGG HHH.HHHH III.IIII JJ.JJJJJJJJKKKKKZ
  KEY: A-CATALOGNUM B-EPOCHTIME C-DECAY D-ELSETNUM E-INCLINATION F-RAAN
  G-ECCENTRICITY H-ARGPERIGEE I-MNANOM J-MNMOTION K-ORBITNUM Z-CHECKSUM
  TO ALL RADIO AMATEURS BT

 FO-29
 1 24278U 96046B   00169.11889132  .00000023  00000-0  61790-4 0  3375
 2 24278  98.5879  76.9850 0350437 227.0949 130.0301 13.52725019189282

 ■ 軌道要素2:「jamsat−keps:1003」より                    
         SB KEPS @ AMSAT  $ORB00170.O
         Orbital Elements  00170.OSCAR

 HR AMSAT ORBITAL ELEMENTS FOR OSCAR SATELLITES
 FROM WA5QGD FORT WORTH,TX June 18, 2000
 SEND SUBSCRIBE/UNSUBSCRIBE TO majordomo@amsat.org ONLY
 BID: ORB00170.O
 TO ALL RADIO AMATEURS BT
 
  Satellite: FO-29
 Catalog number: 24278
 Epoch time:      00169.11889132
 Element set:     337
 Inclination:       98.5879 deg
 RA of node:        76.9850 deg
 Eccentricity:    0.0350437
 Arg of perigee:   227.0949 deg
 Mean anomaly:     130.0301 deg
 Mean motion:   13.52725019 rev/day
 Decay rate:        2.3e-07 rev/day^2
 Epoch rev:           18928
 Checksum:              319

-------------------  FO-29(JAS-2)のテレメトリに関する情報  ----------------------
 
 2)6月24日(土)のテレメトリの最後の行の変換例です.

  AS19023C1 24JUN2000
  10:45-11:03(JST)
  Freq.435.804-.787MHz
  
 HI HI AE C7 88 55 1D 51 1A 0D 01 76 75 4B 89 60 92 91 B0 87 BD B9 BA BB BB 
  
 テレメトリ  	内   容	    	換算値	単 位  
 3C	磁気センサーZ軸=	57352.9	[nT]
 3D	磁気センサX軸  =	36764.7	[nT]
 4A	太陽電池発生電流=	 1343.1	[mA]
 4B	B充放電電流	=	 -118.4	[mA]
 4C	B端子電圧	=	   15.7	[V]
 4D	B中間端子電圧	=	    7.0	[V]
 5A	バス電圧    	=	   17.3	[V]
 5B	JTA送信電力	=	  779.4	[mW]
 5C 	構体温度1	=	    8.5	[℃]
 5D	構体温度2	=	   10.0	[℃]
 6A	構体温度3	=	    9.6	[℃]
 6B	構体温度4	=	    9.3	[℃]
 6C	Bセル温度	=	    9.3	[℃]

 * OSはWindows 2000,Office 2000 にて計算処理.
 
 ===========================  FO-29(ふじ3号)のQSO情報等 ======================
   
 3) [jamsat-bb:5388]、[jamsat-bb:5389]、[jamsat-bb:5391]にFO−29とのQSOについて
   JI1IZR局眞田 正弘 氏、7k4IIN局中島 昌一 氏が 投稿されてましたので
   転載させて頂きました.  

  本日、FO−29で初QSOできました。
 5エレ八木での受信は、少々きついものが
 ありました。RS51〜31程度でした。
 追尾が難しかったのか、ショートQSOでした。
 それから、JH2ESW局のsstvが聞こえて
 いましたが、sstvの準備をしていなかったの
 で、受信等できませんでした。この次は、機
 材をあらかじめセットしておこうと思います。
 2000年6月18日(日)
 眞田 正弘
 JI1IZR 神奈川県平塚市

 ji1izr/眞田正弘さん、おめでとうございます.
 昨夜は私も5ele.八木を受信にして、
 3ele八木でUPしていました.このシステムでは
 FO-29 mode JA SSBの初QSO成功でした.

 5ele.同士でQSOできる日を楽しみにしています. 
 -- 
  -`` `  --``` -`- ````- `` `` -`  with Mac PowerBook 2400/G3
 de 7K4iiN ; Inside Island Network
 Shoichi  中島 昌一 Nakashima, E-mail; jim@jsdi.or.jp
 7k4iin@jamsat.or.jp, URL;http://www.jsdi.or.jp/~tina88/7k4iin/
  TKS es CUAGN ----  ........ --... ...--  - ..- ...-.-

 中島様、レスポンスありがとうございます。
 早速ホームページを拝見しました。
 私のアンテナは、コメットのCYA−240で、
 仰角約30度固定、ローテータはダイアモ
 ンドのRT200という小型のものです。
 これでも、FO−29でQSOできています。
 私としては、FMの衛星よりSSBの衛星の
 方がQSOしやすく感じていますが、いかが
 でしょうか。

 2000年6月20日(火)
 眞田正弘
 JI1IZR 神奈川県平塚市
  
 ===============================================================================
   4)JARL のホームページに運用予定が記載されていましたのでご紹介します.
       ( http://www.jarl.or.jp/Japanese/3_Fuji/new/uy.htm )

        ■ ふじ3号/FOー29/JAS-2 ■  
   
     *** 運用予定について ***

 ☆☆ 待望のデジトーカ運用を5日間運用開始 ☆☆
  
    6月13日 〜 7月02日  アナログ系運用 

  *なお,運用予定は都合により変更することがありますのでご了承願います。

 照会先 : lab@jarl.or.jp

 最新の情報はテレホンサービス(03−3942−1000)をお聞きください。  
 以後の運用につきましては6月下旬にお知らせいたします。

-----------------------    FO−20(JAS-1b)道要素   -------------------------
  5)
  ■ 軌道要素1 :出典はFO-29「ふじ3号」に同じ.
  
  FO-20
 1 20480U 90013C   00168.36847592 -.00000030  00000-0 -10879-5 0  2332
 2 20480  99.0534 298.9244 0541059  57.1092 308.0876 12.83274387485174
 
  ■ 軌道要素2 :出典はFO−29「ふじ3号」に同じ.
               
  Satellite: FO-20
 Catalog number: 20480
 Epoch time:      00168.36847592
 Element set:     233
 Inclination:       99.0534 deg
 RA of node:       298.9244 deg
 Eccentricity:    0.0541059
 Arg of perigee:    57.1092 deg
 Mean anomaly:     308.0876 deg
 Mean motion:   12.83274387 rev/day
 Decay rate:       -3.0e-07 rev/day^2
 Epoch rev:           48517
 Checksum:              316

 --------------------------------------------------------------------------------
 
         ■ ふじ2号/FO−20/JAS-1b ■      
            
          「ふじ2号」 現況                                                                                  
             
   JAS-1b(ふじ2号)のCWテレメトリ信号に,1997年10月12日12時(JST)の
 日本上空通過時,3桁の数字が繰り返されるはずが3個の長音の繰り返しとなっているという
 異常が発見されました。この不具合は次の通過時からは回復していましたが13日15時20分の
 通過時に再び観測されました。現在はA0の送信が続いています。衛星のアナログ系中継モード
 動作は異常が無く,正常時のテレメトリ内容からは衛星の動作に異常は認められません。従って,
 直ちに衛星のミッションに影響することは無いと予想されますので,当面はアナログ系中継
 モードを継続します。衛星は既に打ち上げてから7年8ヶ月を経ておりますので,今後は監視を
 強化する予定です。アマチュア各位のレポートをお待ちします。
 -------------------------------------------------------------------------------- 
  1997年10月14日 00時35分 確認のテレメトリ音 151 KB (A0) 
  1997年10月14日 11時10分 確認のテレメトリ音 216 KB (異常キーイング) 

  以上 JARLのホ−ムページの http://www.jarl.or.jp/Japanese/3_Fuji/new/fuji.htm

===================== FO-20 ふじ2号 のテレメトリ観測結果 ====================

   6月3日(土)の14:15(JST)のパスの観測結果では以前観測した結果よりも変動のない
 単一周波数でドップラー効果で周波数がずれていくのみの状態に戻っておりました。
                                         
   =============   JAS-2 (ふじ3号)と現在までの情報   ===========
  
  A.電話によるふじ3号の運用情報
      社団法人日本アマチュア連盟によるサービス
           TEL .   03− 3942 − 1000
  B.アマチュア無線FAXサービス
      JARLによるふじ3号の軌道情報(オービットカレンダー)
         FAX No.  03− 3233 −0055
  C.WWWブラウザで情報を簡単に見れる人のためにJAS−2
     ふじ3号の衛星としての運用されるまでの名前)の概要、打ち上げ
     までの状況、運用中における状況を説明したホームページを紹介し
     ておきます.
     社団法人日本アマチュア無線連盟(JARL)のホームページ

          http://www.jarl.or.jp/Japanese/3_Fuji/jasmenu.htm
 
     宇宙開発事業団(NASDA)ホームページ 
          http://www.nasda.go.jp/
         打上げ衛星 :地球観測プラットフォーム技術衛星(ADEOS) 
                       アマチュア衛星3号(JAS-2)
          http://yyy.tksc.nasda.go.jp/Home/Press/Press-j/jas-2_j.html        

  D.JAMSATによる軌道情報の活用
        JAMSATのホームページまたはjamsat−kepsの軌道要素より
      衛星の軌道情報を得る.
     JAMSATホームページ
               URL    http://www.jamsat.or.jp
       上記ホームページでは各地で行われるアマチュア通信衛星に関する
      ミューティングのお知らせや世界のアマチュア衛星に関する情報が
      満載されています.
 ========================================================================  
     JAMSATのメンバーのご協力によりJH6MME(高山 秀造)が
    執筆・編集を担当しております.ご指摘の意見、疑問やこのようにしたら
    というアイデアがありましたら小さなことでもかまいませんので気軽に下
    記アドレスまでご連絡ください.jamsat−newsからjas2
    infoへの転載をJH4PHW局坂井さんに担当して頂いております.  
                  E-mail : jh6mme@jamsat.or.jp : jh4phw@jamsat.or.jp
 ===============================   END  ===============================